Location: Taupo
(38.6830°S, 176.0830°E)
Time: 14:55:49
(UTC+13:00)

Meteor 1-27 - Visible Passes

Search period start: 18 October 2019 00:00
Search period end: 28 October 2019 00:00
Orbit: 837 x 893 km, 81.3° (Epoch: 16 October)

Date Brightness Start Highest point End Pass type
(mag) Time Alt. Az. Time Alt. Az. Time Alt. Az.
18 Oct 5.6 20:02:20 10° SSE 20:06:36 21° ESE 20:10:46 10° ENE visible
18 Oct 5.0 21:44:34 10° SSW 21:50:08 50° W 21:53:41 21° NNW visible
19 Oct 5.6 19:54:41 10° SSE 19:58:57 21° ESE 20:03:07 10° ENE visible
19 Oct 5.0 21:36:56 10° SSW 21:42:29 49° W 21:46:50 16° NNW visible
20 Oct 5.1 21:29:17 10° SSW 21:34:50 49° W 21:40:04 11° NNW visible
21 Oct 5.1 21:21:39 10° SSW 21:27:11 49° W 21:32:34 10° NNW visible
22 Oct 5.1 21:14:00 10° SSW 21:19:32 49° W 21:24:54 10° NNW visible
23 Oct 5.1 21:06:21 10° SSW 21:11:52 49° W 21:17:14 10° NNW visible
24 Oct 5.2 20:58:42 10° SSW 21:04:12 49° W 21:09:35 10° NNW visible
25 Oct 5.2 20:51:03 10° SSW 20:56:33 48° W 21:01:54 10° NNW visible
26 Oct 5.2 20:43:25 10° SSW 20:48:53 48° W 20:54:14 10° NNW visible
27 Oct 5.3 20:35:46 10° SSW 20:41:14 48° W 20:46:35 10° NNW visible
